Regional Weather Roundup
Issued by NWS

Home | Current Version | Previous Version | Text Only | Print | Product List | Glossary Off
Versions: 1 2 3 4 5 6 7 8 9 10 11 12 13 14 15 16 17 18 19 20 21 22 23 24 25 26 27 28 29 30 31 32 33 34 35 36 37 38 39 40 41 42 43 44 45 46 47 48 49 50

798
ASUS45 KBOU 031307
RWRCO

WEATHER ROUNDUP FOR COLORADO
NATIONAL WEATHER SERVICE DENVER/BOULDER CO
700 AM MDT TUE MAY 03 2016

NOTE: "FAIR" INDICATES FEW OR NO CLOUDS BELOW 12000 FEET WITH NO
SIGNIFICANT WEATHER AND/OR OBSTRUCTIONS TO VISIBILITY.

COZ001>005-013-030-031-031400-
...NORTHWEST COLORADO...

CITY           SKY/WX    TMP DP  RH WIND       PRES   REMARKS
CRAIG          FAIR      28  25  88 CALM      30.28R
HAYDEN         FAIR      34  23  64 E9        30.27S WCI  26
MEEKER         FAIR      32  25  75 E5        30.28R WCI  27
MOUNT WERNER   NOT AVBL
STEAMBOAT SPGS FAIR      29  24  79 CALM      30.29R
WALDEN         FAIR      23  18  80 SE6       30.31R WCI  16
$$

COZ006>008-011-031400-
...WEST CENTRAL VALLEYS...

CITY           SKY/WX    TMP DP  RH WIND       PRES   REMARKS
GRAND JUNCTION FAIR      38  36  92 CALM      30.21R
MONTROSE       FAIR      37  30  75 S8        30.26R
EAGLE          NOT AVBL
RIFLE          FAIR      35  30  82 CALM      30.26R
DELTA          NOT AVBL
NUCLA          NOT AVBL
$$

COZ017>023-064>068-031400-
...SOUTHWEST COLORADO...

CITY           SKY/WX    TMP DP  RH WIND       PRES   REMARKS
DURANGO        FAIR      30  29  96 CALM      30.22R
CORTEZ         FAIR      32  29  88 NE5       30.22R WCI  27
PAGOSA SPRINGS FAIR      32  32  99 CALM      30.25R
TELLURIDE      NOT AVBL
WOLF CREEK PAS FAIR      27  18  69 NE8       30.37R WCI  18
$$

COZ009-010-012-014-032>034-037-058>063-031400-
...CENTRAL COLORADO...

CITY           SKY/WX    TMP DP  RH WIND       PRES   REMARKS
ASPEN          FAIR      31  22  69 SW7       30.28R WCI  24
BUENA VISTA    FAIR      36  23  58 E6        30.26R
COPPER MTN     NOT AVBL
BERTHOUD PASS  FAIR      16   5  62 N13G25    30.34R WCI   2
COTTONWOOD PAS FAIR      36  14  41 W5        30.29R
GUNNISON       FAIR      27  23  86 CALM      30.31R
KREMMLING      FAIR      27  21  80 CALM      30.32R
LEADVILLE      FAIR      23  15  71 N6        30.30R WCI  16
MONARCH PASS   FAIR      23  18  80 MISG      30.43R
SALIDA         FAIR      32  27  82 CALM      30.34R
SUNLIGHT       FAIR      32  18  55 N5          N/A  WCI  27
WILKERSON PASS FAIR      27  18  69 NE12G20   30.33S WCI  16
$$

COZ069>075-031400-
...SAN LUIS VALLEY/SANGRE DE CRISTO MOUNTAINS...

CITY           SKY/WX    TMP DP  RH WIND       PRES   REMARKS
ALAMOSA        FAIR      30  29  96 CALM      30.23R
LA VETA PASS   FAIR      30  27  86 NE10      30.30R WCI  21
SAGUACHE       NOT AVBL
$$

COZ035-036-038>040-031400-
...NORTHERN COLORADO FRONT RANGE...

CITY           SKY/WX    TMP DP  RH WIND       PRES   REMARKS
DENVER INTL AP FAIR      41  29  62 W10       30.19R
DMNS CITY PARK   N/A     41  30  63 SE7       30.21R
AURORA         FAIR      39  31  72 SW6       30.21R
FRONT RANGE AP MOSUNNY   39  30  70 W9        30.20
ERIE MUNI ARPT FAIR      39  33  78 CALM      30.21R
BOULDER MUN AP FAIR      46  25  42 SW5       30.20R
CENTENNIAL     FAIR      39  29  67 W8        30.21R
BROOMFIELD     MOSUNNY   45  27  49 W10       30.21R
FORT COLLINS   FAIR      45  30  57 N7        30.20R
LONGMONT       FAIR      44  32  62 W6        30.22R HAZE
$$

COZ041-046-047-076>085-087-088-031400-
...PIKES PEAK/PALMER DIVIDE AND SOUTHERN FOOTHILLS...

CITY           SKY/WX    TMP DP  RH WIND       PRES   REMARKS
COLO. SPRINGS  FAIR      44  26  49 NW10      30.22R
A. F. ACADEMY  FAIR      37  27  65 N7        30.22R
SCHRIEVER AFB  NOT AVBL
ELLICOTT       FAIR     N/A N/A N/A NW7       30.19R
FALCON         FAIR      41  26  55 NW12G18   30.22R
FORT CARSON    FAIR      42  31  63 NW5       30.21R
LIMON          FAIR      39  32  76 NW14      30.15R
MONUMENT HILL  FAIR      32  27  80 W10       30.24R WCI  24
TRINIDAD       CLOUDY    37  32  82 W9        30.21R
$$

COZ042>045-048>051-090-091-031400-
...NORTHEAST COLORADO...

CITY           SKY/WX    TMP DP  RH WIND       PRES   REMARKS
GREELEY ARPT   FAIR      45  34  65 NW13      30.18R
AKRON          FAIR      40  33  76 NW12      30.13R
BURLINGTON     PTSUNNY   46  36  68 NW14      30.09R
WRAY           NOT AVBL
STERLING       FAIR      43  36  75 NW12      30.12R
HOLYOKE        NOT AVBL
FORT MORGAN    FAIR      45  33  61 NW14      30.16R
$$

COZ086-089-092>099-031400-
...SOUTHEAST COLORADO...

CITY           SKY/WX    TMP DP  RH WIND       PRES   REMARKS
PUEBLO         FAIR      45  33  63 W10       30.18R
LA JUNTA       CLOUDY    47  36  65 W8        30.15R
LAMAR          FAIR      51  37  58 NW8G16    30.09R
SPRINGFIELD      N/A     46  36  68 NW13      30.12R
$$




USA.gov is the U.S. government's official web portal to all federal, state and local government web resources and services.